Regional Weather Roundup
Issued by NWS

Home | Current Version | Previous Version | Graphics & Text | Print | Product List | Glossary Off
Versions: 1 2 3 4 5 6 7 8 9 10 11 12 13 14 15 16 17 18 19 20 21 22 23 24 25 26 27 28 29 30 31 32 33 34 35 36 37 38 39 40 41 42 43 44 45 46 47 48 49 50

000
ASUS43 KMPX 290810
RWRMN
WEATHER ROUNDUP FOR MINNESOTA
NATIONAL WEATHER SERVICE TWIN CITIES/CHANHASSEN MN
200 AM CST SAT NOV 29 2014


NOTE: "FAIR" INDICATES FEW OR NO CLOUDS BELOW 12,000 FEET WITH NO
SIGNIFICANT WEATHER AND/OR OBSTRUCTIONS TO VISIBILITY. N/A MEANS
CURRENT SKY AND/OR WEATHER CONDITIONS ARE NOT AVAILABLE.

MNZ060>063-068>070-290900-
   Twin Cities Metro

CITY           SKY/WX    TMP DP  RH WIND       PRES   REMARKS
TWIN CITIES    MOCLDY    22  18  85 SE7       29.61F WCI  13
ST PAUL        PTCLDY    23  19  85 E9        29.63F WCI  13
CRYSTAL        FAIR      24  19  81 SE6       29.60F WCI  17
BLAINE         PTCLDY    23  21  93 SE7       29.60F WCI  15
LAKEVILLE      PTCLDY    18  16  93 E5        29.60F WCI  11
EDEN PRAIRIE   PTCLDY    23  19  85 E8        29.58F WCI  14
SOUTH ST PAUL  PTCLDY    24  20  85 SE5       29.62F WCI  18
LAKE ELMO      FAIR      23  21  93 E5        29.64S WCI  17
$$
MNZ001>005-007-008-013>017-022>024-027-028-290900-
   Northwest Minnesota

CITY           SKY/WX    TMP DP  RH WIND       PRES   REMARKS
BEMIDJI        CLOUDY    17  14  88 S8        29.52F WCI   7
HALLOCK        CLOUDY    19  14  79 SE8       29.51F WCI   9
ROSEAU         CLOUDY    18  12  79 SE8       29.51F WCI   7
WARROAD        CLOUDY    18  12  79 SE8       29.52F WCI   7
THIEF RVR FALL CLOUDY    18  16  93 SE9       29.50F WCI   6
CROOKSTON      MOCLDY    19  16  86 S10       29.52F WCI   8
FOSSTON        MOCLDY    18  12  79 S5        29.52F WCI  11
DETROIT LAKES  CLOUDY    19  18  93 SE9       29.52F WCI   9
MOORHEAD       CLOUDY    21  21 100 S17       29.52F FOG     WCI   7
PARK RAPIDS    CLOUDY    17  15  92 S7        29.53F WCI   8
MAHNOMEN       PTSUNNY   19  16  86 S9        29.50F WCI   8
$$
MNZ006-009>011-018-025>026-290900-
   North Central Minnesota

CITY           SKY/WX    TMP DP  RH WIND       PRES   REMARKS
BAUDETTE       CLOUDY    17  13  84 SE6       29.54F WCI   9
FLAG ISLAND    FLURRIES  16  12  86 SE7       29.53F WCI   6
INTL FALLS     CLOUDY    18  13  80 SE6       29.58F WCI  10
WASKISH        CLOUDY    18  14  86 CALM      29.55F
BIG FORK       CLOUDY    18  12  79 SE3       29.55F
LONGVILLE      CLOUDY    18  16  93 S13       29.54F WCI   4
GRAND RAPIDS   CLOUDY    18  14  86 SE12      29.55F WCI   5
CRANE LAKE     CLOUDY    18  16  93 CALM      29.61F
ORR            CLOUDY    18  12  79 SE5       29.56F WCI  11
COOK           CLOUDY    18  14  86 SE3       29.59F
WALKER         CLOUDY    18  14  87 S5        29.54S WCI  11
$$
MNZ012-019>021-037-290900-
   Northeast Minnesota

CITY           SKY/WX    TMP DP  RH WIND       PRES   REMARKS
DULUTH         CLOUDY    19  15  84 SE10      29.60F FOG     WCI   7
ELY            CLOUDY    18  14  86 SE5       29.59F WCI  11
HIBBING        CLOUDY    18  13  80 S7        29.58F WCI   9
EVELETH        MOCLDY    19  16  86 S3        29.60S
DULUTH HARBOR  CLOUDY    21  18  86 CALM      29.68F
TWO HARBORS    CLOUDY    21  18  86 CALM      29.63S
SILVER BAY     PTCLDY    21  19  93 CALM      29.64R
GRAND MARAIS     N/A     26  21  81 S8        29.69F WCI  18
G MARAIS ARPRT LGT SNOW  18  16  93 SE5       29.62F WCI  11
$$
MNZ029>031-032-039>041-046>048-054>057-064-290900-
   West Central Minnesota

CITY           SKY/WX    TMP DP  RH WIND       PRES   REMARKS
FERGUS FALLS   CLOUDY    21  18  86 S9        29.57S WCI  11
WHEATON        CLOUDY    19  18  93 S7        29.55S FOG     WCI  10
MORRIS         PTCLDY    19  18  93 SE12      29.52R FOG     WCI   7
ALEXANDRIA     CLOUDY    20  18  92 SE12      29.53F WCI   8
ELBOW LAKE     CLOUDY    21  19  92 S12       29.53R WCI   9
WADENA         CLOUDY    18  16  93 SE7       29.53F WCI   8
GLENWOOD       PTCLDY    19  18  93 SE8       29.54F FOG     WCI   9
APPLETON       PTCLDY    19  18  93 SE7       29.53F WCI  10
BENSON         PTCLDY    19  18  93 S9        29.53F WCI   9
ORTONVILLE     PTCLDY    18  16  93 SE10      29.50F WCI   6
MADISON        PTCLDY    19  18  93 SE7       29.52F WCI  10
WILLMAR        FAIR      21  19  93 SE10      29.55F WCI  10
$$
MNZ033>034-036-042>043-049>051-058-059-290900-
   Central Minnesota

CITY           SKY/WX    TMP DP  RH WIND       PRES   REMARKS
ST CLOUD       MOCLDY    22  17  81 E6        29.58F WCI  14
SAUK CENTRE    CLOUDY    21  19  91 SE8       29.55F WCI  11
PAYNESVILLE    MOCLDY    18  17  96 E7        29.57S WCI   9
AITKIN         CLOUDY    21  16  79 SE7       29.57F WCI  13
PINE RIVER     CLOUDY    19  16  86 SE8       29.59F WCI   9
BRAINERD       CLOUDY    18  15  88 SE5       29.57F WCI  11
STAPLES        CLOUDY    18  16  93 SE5       29.55S WCI  11
LONG PRAIRIE   CLOUDY    19  18  93 SE8       29.55F WCI   9
LITTLE FALLS   CLOUDY    21  18  86 SE8       29.58F WCI  12
LITCHFIELD     PTCLDY    21  21 100 SE5       29.57F WCI  15
BUFFALO        PTCLDY    21  18  88 E3        29.60F
MAPLE LAKE     PTCLDY    19  17  95 E3        29.59F
$$
MNZ037-044-045-052-053-290900-
   East Central Minnesota

CITY           SKY/WX    TMP DP  RH WIND       PRES   REMARKS
PRINCETON      PTCLDY    21  18  86 E7        29.59F WCI  13
MORA             N/A    N/A N/A N/A MISG        N/A
CAMBRIDGE      FAIR      21  16  79 SE3       29.60F
RUSH CITY      PTCLDY    19  16  89 E3        29.63F
MOOSE LAKE     CLOUDY    21  18  86 CALM      29.61S
HINCKLEY       FAIR      21  18  86 CALM      29.63F
CLOQUET        CLOUDY    18  14  86 SE5       29.61F WCI  11
MCGREGOR       CLOUDY    21  18  86 SE8       29.59F WCI  12
$$
MNZ071>073-080-081-089-090-097-098-290900-
   Southwest Minnesota

CITY           SKY/WX    TMP DP  RH WIND       PRES   REMARKS
MONTEVIDEO     MOCLDY    19  19 100 S6        29.54F WCI  11
GRANITE FALLS  PTCLDY    19  18  93 SE7       29.56F WCI  10
CANBY          PTCLDY    17  15  95 SE5       29.51F WCI   9
MARSHALL       FAIR      16  10  79 E6        29.51F WCI   7
REDWOOD FALLS  PTCLDY    19  17  92 SE9       29.55F FOG     WCI   8
OLIVIA         MOCLDY    23  21  93 SE8       29.54F WCI  14
PIPESTONE      CLEAR     25  23  93 S8        29.50S WCI  16
WINDOM         MOCLDY    21  21 100 SE9       29.53F FOG     WCI  11
WORTHINGTON    PTCLDY    21  19  93 S8        29.53F WCI  12
JACKSON        MOCLDY    23  21  93 S9        29.54F WCI  13
TRACY          PTCLDY    23  22  94 S6        29.52F WCI  16
SLAYTON        PTCLDY    19  18  98 S9        29.51F FOG     WCI   7
$$
MNZ065>067-074>077-082>085-091>093-290900-
   South Central Minnesota

CITY           SKY/WX    TMP DP  RH WIND       PRES   REMARKS
MANKATO        MOCLDY    25  19  80 SE13      29.57F WCI  13
NEW ULM        MOCLDY    21  21 100 SE8       29.56F FOG     WCI  12
ST JAMES       PTCLDY    18  16  93 SE6       29.56F FOG     WCI   9
FAIRMONT       PTCLDY    18  12  79 SE7       29.55F WCI   8
GLENCOE        MOCLDY    21  20  96 E8        29.57F WCI  11
FARIBAULT      MOCLDY    25  21  86 SE6       29.59F WCI  18
OWATONNA       MOCLDY    27  23  86 SE16      29.57F WCI  14
WASECA         PTCLDY    27  21  80 SE8       29.59F HAZE    WCI  18
ALBERT LEA     PTCLDY    23  23 100 SE9       29.59F FOG     WCI  13
$$
MNZ078>079-086>088-094>096-290900-
   Southeast Minnesota

CITY           SKY/WX    TMP DP  RH WIND       PRES   REMARKS
ROCHESTER      PTCLDY    23  21  92 SE14      29.60F FOG     WCI  11
RED WING       PTCLDY    27  21  80 SE9       29.64F WCI  17
STANTON        PTCLDY    26  22  84 SE9       29.59F WCI  17
DODGE CENTER   PTCLDY    25  25 100 SE14      29.59F FOG     WCI  13
WINONA         PTCLDY    25  23  93 S3        29.68F
AUSTIN         MOCLDY    23  21  93 SE6       29.61F FOG     WCI  16
PRESTON        PTCLDY    25  23  93 SE8       29.63F FOG     WCI  16
$$
ABBREVIATIONS USED IN REMARKS
   TC - TEMPERATURES IN CELSIUS
  WCI - WIND CHILL INDEX
   HX - HEAT INDEX
  VSB - VISIBILITY
$$


USA.gov is the U.S. government's official web portal to all federal, state and local government web resources and services.